Regional Weather Roundup
Issued by NWS

Home | Current Version | Previous Version | Text Only | Print | Product List | Glossary Off
Versions: 1 2 3 4 5 6 7 8 9 10 11 12 13 14 15 16 17 18 19 20 21 22 23 24 25 26 27 28 29 30 31 32 33 34 35 36 37 38 39 40 41 42 43 44 45 46 47 48 49 50

000
ASUS43 KIND 302359
RWRIN

WEATHER ROUNDUP FOR INDIANA
NATIONAL WEATHER SERVICE INDIANAPOLIS IN
800 PM EDT WED JUL 30 2014

NOTE: "FAIR" INDICATES FEW OR NO CLOUDS BELOW 12,000 FEET WITH NO
SIGNIFICANT WEATHER AND/OR OBSTRUCTIONS TO VISIBILITY.

* - STATION DOES NOT REPORT WEATHER SUCH AS PRECIPITATION OR FOG.

+ - STATION NOT QUALITY CONTROLLED BY THE NATIONAL WEATHER SERVICE.
    USE DATA WITH CAUTION...ESPECIALLY DEWPOINT AND RELATIVE
    HUMIDITY OBSERVATIONS.

INZ001>003-010>013-019-020-310100-
NORTHWEST INDIANA

CITY           SKY/WX    TMP DP  RH WIND       PRES   REMARKS
GARY /AIRPORT/ MOSUNNY   68  61  77 NE10      30.02S
VALPARAISO     SUNNY     72  58  61 N7        30.02R
6HR MIN TEMP:  70; 6HR MAX TEMP:  80;


$$

LMZ046-743>745-310100-
SOUTHERN LAKE MICHIGAN

STATION/POSITION TIME  TEMP WIND        PRES
                       AIR  DIR/SP/G
                 (UTC) (F)  (DEG/KT/KT) (MB)
BURNS HARBOR     2300   67   50/  9/ 10 1016.9F
MICHIGAN CITY    2300   64   10/  8/  9   N/A

$$

INZ004-005-014>016-021>024-310100-
NORTH CENTRAL INDIANA

CITY           SKY/WX    TMP DP  RH WIND       PRES   REMARKS
ELKHART        SUNNY     72  54  53 NW7       30.01S
GOSHEN         SUNNY     72  55  55 NW8       30.00S
6HR MIN TEMP:  72; 6HR MAX TEMP:  78;

SOUTH BEND     SUNNY     72  56  57 NW5       30.01S
6HR MIN TEMP:  72; 6HR MAX TEMP:  77;


$$

INZ006>009-017-018-025>027-310100-
NORTHEAST INDIANA

CITY           SKY/WX    TMP DP  RH WIND       PRES   REMARKS
ANGOLA *+      CLEAR     73  66  78 NW8       30.00S
FORT WAYNE     PTCLDY    74  59  59 W6        30.01S
6HR MIN TEMP:  73; 6HR MAX TEMP:  78;


$$

INZ028-029-035-036-043>045-051>053-310100-
WEST CENTRAL INDIANA

CITY           SKY/WX    TMP DP  RH WIND       PRES   REMARKS
GREENCASTLE +  PTSUNNY   73  61  64 CALM      30.04S
LAFAYETTE      SUNNY     75  59  57 W5        30.01R
6HR MIN TEMP:  75; 6HR MAX TEMP:  79;

TERRE HAUTE    SUNNY     76  59  55 W5        30.03S
6HR MIN TEMP:  76; 6HR MAX TEMP:  80;


$$

INZ030>032-037>040-046>048-054>057-064-065-310100-
CENTRAL INDIANA

CITY           SKY/WX    TMP DP  RH WIND       PRES   REMARKS
COLUMBUS       MOCLDY    72  63  73 CALM      30.04F
INDIANAPOLIS   PTSUNNY   69  62  78 S12       30.03S
6HR MIN TEMP:  67; 6HR MAX TEMP:  78; 6HR PCP:  0.02;

-EAGLE CREEK   MOSUNNY   74  61  63 W5        30.03R
6HR MIN TEMP:  67; 6HR MAX TEMP:  78; 6HR PCP:  0.08;

KOKOMO *+      SUNNY     75  61  60 NW7       30.01S
MT COMFORT *+  PTCLDY    70  64  83 SW8       30.04S
SHELBYVILLE    PTCLDY    70  63  78 S5        30.03F
6HR MIN TEMP:  66; 6HR MAX TEMP:  80; 6HR PCP:  0.41;


$$

INZ033-034-041-042-049-050-058-059-310100-
EAST CENTRAL INDIANA

CITY           SKY/WX    TMP DP  RH WIND       PRES   REMARKS
MUNCIE         CLEAR     74  59  59 NW6       30.02S
6HR MIN TEMP:  73; 6HR MAX TEMP:  78;


$$

INZ060-061-067>069-081>083-085>088-310100-
SOUTHWEST INDIANA

CITY           SKY/WX    TMP DP  RH WIND       PRES   REMARKS
EVANSVILLE     MOSUNNY   78  59  51 W12       30.06R
6HR MIN TEMP:  78; 6HR MAX TEMP:  84;


$$

INZ062-063-066-070>080-084-089>092-310100-
SOUTH CENTRAL AND SOUTHEAST INDIANA

CITY           SKY/WX    TMP DP  RH WIND       PRES   REMARKS
BLOOMINGTON    CLOUDY    73  66  78 CALM      30.05S
6HR MIN TEMP:  71; 6HR MAX TEMP:  78; 6HR PCP: TRACE;

SEYMOUR +      CLEAR     72  46  40 CALM      30.04S

$$




USA.gov is the U.S. government's official web portal to all federal, state and local government web resources and services.